Flag for Austria Weather past 2 weeks in Bruck an der Leitha, Lower Austria, Austria

Now
30 °F

Passing clouds.


Feels Like: 23 °F
Forecast: 34 / 47 °F
Wind: 7 mph from South

Location: Wien / Schwechat-Flughafen

Current Time: Mar 3, 2015 at 11:50:00 PM

Latest Report: Mar 3, 2015 at 11:00 PM


Visibility: 11 mi

Pressure: 30.23 "Hg

Humidity: 78%

Dew point: 24 °F

Location of Bruck an der LeithaLocation

Historic Weather in Bruck an der Leitha — Graph

°F

Bruck an der Leitha temperature yesterday

Maximum temperature yesterday: 58 °F (at 12:00 PM)
Minimum temperature yesterday: 40 °F (at 11:00 PM)
Average temperature yesterday: 45 °F

Past Weeks' High & Low Weather Summary

 TemperatureHumidityPressure
High58 °F (Mar 2, 12:00 PM)100% (Feb 20, 8:00 AM)30.79 "Hg (Feb 20, 8:00 AM)
Low23 °F (Feb 20, 7:00 AM)34% (Feb 21, 12:00 PM)29.59 "Hg (Feb 23, 4:00 PM)
Average39 °F78%30.06 "Hg
* Reported Feb 16 10:00 PM — Mar 3 10:00 PM, Bruck an der Leitha, Weather by CustomWeather, © 2015

Note: Actual official high and low records may vary slightly from our data, if they occured in-between our weather recording intervals... More about our weather records

Advertising

Bruck an der Leitha weather history for previous 24 hours

 ConditionsComfort  
Time TempWeatherWind HumidityBarometerVisibility
10:00 PM
Tue, Mar 3
35 °FPassing clouds.5 mph63%30.24 "Hg9 mi
9:00 PM37 °FPassing clouds.5 mph60%30.24 "Hg28 mi
8:00 PM42 °FPassing clouds.N/A48%30.24 "Hg28 mi
7:00 PM44 °FPassing clouds.3 mph46%30.24 "Hg28 mi
6:00 PM45 °FPassing clouds.5 mph45%30.22 "Hg17 mi
5:00 PM48 °FPassing clouds.8 mph41%30.21 "Hg22 mi
4:00 PM48 °FPassing clouds.9 mph41%30.21 "Hg19 mi
3:00 PM49 °FPassing clouds.12 mph41%30.20 "Hg25 mi
2:00 PM48 °FPassing clouds.12 mph43%30.21 "Hg17 mi
1:00 PM47 °FPassing clouds.10 mph44%30.22 "Hg16 mi
12:00 PM46 °FPassing clouds.12 mph46%30.22 "Hg16 mi
11:00 AM44 °FPassing clouds.12 mph48%30.22 "Hg14 mi
10:00 AM43 °FPassing clouds.12 mph52%30.21 "Hg19 mi
9:00 AM41 °FPassing clouds.10 mph61%30.20 "Hg19 mi
8:00 AM39 °FPassing clouds.7 mph66%30.19 "Hg22 mi
7:00 AM38 °FPassing clouds.9 mph72%30.16 "Hg28 mi
6:00 AM38 °FPassing clouds.8 mph71%30.14 "Hg28 mi
5:00 AM37 °FPassing clouds.8 mph71%30.13 "Hg25 mi
4:00 AM38 °FPassing clouds.9 mph68%30.09 "Hg17 mi
3:00 AM39 °FOvercast.14 mph81%30.03 "Hg22 mi
2:00 AM43 °FPassing clouds.16 mph59%29.96 "Hg31 mi
1:00 AM44 °FOvercast.14 mph60%29.95 "Hg31 mi
12:00 AM41 °FPassing clouds.N/A67%29.92 "Hg25 mi
11:00 PM
Mon, Mar 2
40 °FPassing clouds.N/A72%29.91 "Hg31 mi
Weather by CustomWeather, © 2015

See weather overviewHow to use our weather pages